Change the Weather History Date:

Sunday, August 11, 2013

  Actual Average Record
Temperature  
Mean Temperature 65 °F -  
Max Temperature 77 °F 80 °F 92 °F (1973)
Min Temperature 53 °F 61 °F 45 °F (1974)
Growing Degree Days 15 (Base 50)    
Moisture  
Dew Point 58 °F    
Average Humidity 76    
Maximum Humidity 100    
Minimum Humidity 53    
Precipitation  
Precipitation 0.00 in - - ()
Sea Level Pressure  
Sea Level Pressure 30.10 in    
Wind  
Wind Speed 4 mph (West)    
Max Wind Speed 8 mph    
Max Gust Speed -    
Visibility 16 miles    
Events      
Averages and records for this station are not official NWS values.
T = Trace of Precipitation, MM = Missing Value Source: NWS Daily Summary

Daily Weather History Graph

Daily Weather History Graph

Search for Another Location

Airport or City:

Trip Planner

Search our weather history database for the weather conditions in past years. The results will help you decide how hot, cold, wet, or windy it might be!

Date:

Astronomy

Aug. 11, 2013 Rise Set
Actual Time 6:01 AM EDT 8:01 PM EDT
Civil Twilight 5:31 AM EDT 8:31 PM EDT
Nautical Twilight 4:54 AM EDT 9:07 PM EDT
Astronomical Twilight 4:14 AM EDT 9:47 PM EDT
Moon 10:51 AM EDT (8/11) 10:10 PM EDT (8/11)
Length of Visible Light 14h 59m
Length of Day
13h 59m
Waxing Crescent, 22% of the Moon is Illuminated
Aug 11
Waxing Crescent
Aug 14
First Quarter
Aug 20
Full
Aug 28
Last Quarter
Sep 5
New

Hourly Weather History & Observations

Time (EDT) Temp. Dew Point Humidity Pressure Visibility Wind Dir Wind Speed Gust Speed Precip Events Conditions
12:45 AM 59.0 °F 55.4 °F 88% 30.09 in 10.0 mi WNW 5.8 mph - N/A   Clear
1:45 AM 59.0 °F 57.2 °F 94% 30.10 in 10.0 mi West 5.8 mph - N/A   Clear
3:45 AM 57.2 °F 57.2 °F 100% 30.11 in 10.0 mi WNW 5.8 mph - N/A   Clear
4:45 AM 55.4 °F 53.6 °F 94% 30.12 in 10.0 mi Calm Calm - N/A   Clear
5:45 AM 53.6 °F 53.6 °F 100% 30.13 in 10.0 mi West 5.8 mph - N/A   Clear
6:45 AM 55.4 °F 53.6 °F 94% 30.14 in 20.0 mi Calm Calm - N/A   Clear
7:45 AM 60.8 °F 55.4 °F 82% 30.15 in 20.0 mi Calm Calm - N/A   Clear
8:45 AM 66.2 °F 57.2 °F 73% 30.15 in 20.0 mi Calm Calm - N/A   Clear
9:45 AM 66.2 °F 55.4 °F 68% 30.15 in 20.0 mi Calm Calm - N/A   Clear
10:45 AM 69.8 °F 55.4 °F 60% 30.15 in 20.0 mi Calm Calm - N/A   Clear
11:45 AM 71.6 °F 55.4 °F 57% 30.14 in 20.0 mi WSW 8.1 mph - N/A   Partly Cloudy
12:45 PM 73.4 °F 55.4 °F 53% 30.11 in 20.0 mi Calm Calm - N/A   Partly Cloudy
2:45 PM 77.0 °F 59.0 °F 54% 30.08 in 20.0 mi WSW 5.8 mph - N/A   Scattered Clouds
3:45 PM 75.2 °F 60.8 °F 61% 30.07 in 20.0 mi NW 6.9 mph - N/A   Scattered Clouds
4:45 PM 75.2 °F 60.8 °F 61% 30.07 in 20.0 mi WSW 8.1 mph - N/A   Scattered Clouds
5:45 PM 75.2 °F 60.8 °F 61% 30.06 in 20.0 mi WSW 8.1 mph - N/A   Scattered Clouds
6:45 PM 75.2 °F 62.6 °F 65% 30.04 in 20.0 mi WSW 5.8 mph - N/A   Partly Cloudy
7:45 PM 73.4 °F 62.6 °F 69% 30.05 in 20.0 mi SW 5.8 mph - N/A   Partly Cloudy
8:45 PM 68.0 °F 62.6 °F 83% 30.06 in 10.0 mi WSW 5.8 mph - N/A   Partly Cloudy
9:45 PM 68.0 °F 62.6 °F 83% 30.07 in 10.0 mi Calm Calm - N/A   Partly Cloudy
10:45 PM 66.2 °F 60.8 °F 83% 30.07 in 10.0 mi Calm Calm - N/A   Scattered Clouds
11:45 PM 66.2 °F 62.6 °F 88% 30.06 in 10.0 mi Calm Calm - N/A   Scattered Clouds